This is the latest recevied weather packets stored in our database for station/object DL9OAC-5. If no packets are shown the sender has not sent any weather packets the latest 10 day(s).
| Time | Temp. | Humidity | Pressure | Rain* | Wind** | Luminosity | Snow |
|---|---|---|---|---|---|---|---|
| 1777401462 | 27.22° C | 30% | 1024.1 hPa | - | - | - | - |
| 1777401162 | 27.22° C | 30% | 1024.1 hPa | - | - | - | - |
| 1777400862 | 27.22° C | 30% | 1024.1 hPa | - | - | - | - |
| 1777400562 | 27.22° C | 30% | 1024 hPa | - | - | - | - |
| 1777400262 | 27.78° C | 29% | 1024.1 hPa | - | - | - | - |
| 1777399962 | 27.78° C | 29% | 1024 hPa | - | - | - | - |
| 1777399662 | 28.33° C | 29% | 1023.9 hPa | - | - | - | - |
| 1777399062 | 28.89° C | 29% | 1023.8 hPa | - | - | - | - |
| 1777398762 | 28.33° C | 30% | 1023.8 hPa | - | - | - | - |
| 1777398462 | 27.22° C | 30% | 1023.6 hPa | - | - | - | - |
| 1777397861 | 27.22° C | 30% | 1023.6 hPa | - | - | - | - |
| 1777397561 | 27.22° C | 30% | 1023.5 hPa | - | - | - | - |
| 1777397261 | 27.22° C | 30% | 1023.5 hPa | - | - | - | - |
| 1777396961 | 27.22° C | 30% | 1023.5 hPa | - | - | - | - |
| 1777396661 | 27.22° C | 29% | 1023.6 hPa | - | - | - | - |
| 1777396361 | 27.78° C | 29% | 1023.5 hPa | - | - | - | - |
| 1777396061 | 27.78° C | 28% | 1023.4 hPa | - | - | - | - |
| 1777395761 | 28.33° C | 28% | 1023.4 hPa | - | - | - | - |
| 1777395461 | 29.44° C | 27% | 1023.3 hPa | - | - | - | - |
| 1777395161 | 29.44° C | 27% | 1023.3 hPa | - | - | - | - |
| 1777394861 | 30° C | 26% | 1023.4 hPa | - | - | - | - |
| 1777394561 | 30° C | 25% | 1023.4 hPa | - | - | - | - |
| 1777394261 | 30.56° C | 25% | 1023.4 hPa | - | - | - | - |
| 1777393961 | 31.11° C | 25% | 1023.4 hPa | - | - | - | - |
| 1777393660 | 31.11° C | 24% | 1023.4 hPa | - | - | - | - |
* Rain since midnight (hover to see other rain measurements)
** Current wind speed in m/s (hover to see current wind gust speed)